Weather History for Elko, NV

Change the Weather History Date:

Friday, September 20, 2013

  Actual Average Record
Temperature  
Mean Temperature 61 °F 57 °F  
Max Temperature 83 °F 77 °F 93 °F (1913)
Min Temperature 38 °F 38 °F 16 °F (1924)
Degree Days  
Heating Degree Days 4 8  
Month to date heating degree days 33 104  
Since 1 July heating degree days 33 155  
Cooling Degree Days 0 0  
Month to date cooling degree days 66 20  
Year to date cooling degree days 776 382  
Growing Degree Days 10 (Base 50)    
Moisture  
Dew Point 23 °F    
Average Humidity 36    
Maximum Humidity 64    
Minimum Humidity 8    
Precipitation  
Precipitation 0.00 in 0.02 in 0.26 in (2004)
Month to date precipitation 1.10 0.35  
Year to date precipitation 4.76 6.63  
Snow  
Snow 0.00 in 0.00 in 0.50 in (1895)
Month to date snowfall 0.0 0.0  
Since 1 July snowfall 0.0 0.0  
Since 1 September snowfall 0.0 0.0  
Snow Depth 0.00 in    
Sea Level Pressure  
Sea Level Pressure 29.82 in    
Wind  
Wind Speed 8 mph (South)    
Max Wind Speed 25 mph    
Max Gust Speed 30 mph    
Visibility 10 miles    
Events      
T = Trace of Precipitation, MM = Missing Value Source: NWS Daily Summary

Daily Weather History Graph

Daily Weather History Graph

Search for Another Location

Airport:

Trip Planner

Search our weather history database for the weather conditions in past years. The results will help you decide how hot, cold, wet, or windy it might be!

Date:

Astronomy

Sep. 20, 2013 Rise Set
Actual Time 6:29 AM PDT 6:43 PM PDT
Civil Twilight 6:01 AM PDT 7:10 PM PDT
Nautical Twilight 5:29 AM PDT 7:42 PM PDT
Astronomical Twilight 4:56 AM PDT 8:15 PM PDT
Moon 7:18 PM PDT (9/20) 7:49 AM PDT (9/20)
Length of Visible Light 13h 08m
Length of Day
12h 14m
Full, 98% of the Moon is Illuminated
Sep 20
Full
Sep 26
Last Quarter
Oct 4
New
Oct 11
First Quarter
Oct 18
Full

Hourly Weather History & Observations

Time (PDT) Temp. Dew Point Humidity Pressure Visibility Wind Dir Wind Speed Gust Speed Precip Events Conditions
12:56 AM 46.0 °F 26.1 °F 46% 29.97 in 10.0 mi Calm Calm - N/A   Clear
1:56 AM 44.1 °F 27.0 °F 51% 29.96 in 10.0 mi Calm Calm - N/A   Clear
2:56 AM 39.9 °F 28.0 °F 63% 29.96 in 10.0 mi Calm Calm - N/A   Clear
3:56 AM 39.9 °F 27.0 °F 60% 29.96 in 10.0 mi Calm Calm - N/A   Clear
4:56 AM 39.0 °F 26.1 °F 60% 29.96 in 10.0 mi Calm Calm - N/A   Clear
5:56 AM 39.0 °F 27.0 °F 62% 29.97 in 10.0 mi Calm Calm - N/A   Clear
6:56 AM 39.0 °F 26.1 °F 60% 29.99 in 10.0 mi Calm Calm - N/A   Clear
7:56 AM 48.9 °F 28.9 °F 46% 29.98 in 10.0 mi ENE 4.6 mph - N/A   Clear
8:56 AM 57.0 °F 28.0 °F 33% 29.96 in 10.0 mi ENE 8.1 mph - N/A   Clear
9:56 AM 64.9 °F 28.9 °F 26% 29.92 in 10.0 mi NE 8.1 mph - N/A   Clear
10:56 AM 69.1 °F 28.0 °F 22% 29.88 in 10.0 mi ENE 8.1 mph - N/A   Clear
11:56 AM 77.0 °F 27.0 °F 16% 29.84 in 10.0 mi SSE 11.5 mph 16.1 mph N/A   Clear
12:56 PM 80.1 °F 17.1 °F 9% 29.80 in 10.0 mi South 15.0 mph - N/A   Clear
1:56 PM 81.0 °F 17.1 °F 9% 29.75 in 10.0 mi SSW 16.1 mph 25.3 mph N/A   Clear
2:56 PM 82.0 °F 16.0 °F 8% 29.75 in 10.0 mi South 12.7 mph 20.7 mph N/A   Clear
3:56 PM 82.0 °F 15.1 °F 8% 29.72 in 10.0 mi SSW 12.7 mph 24.2 mph N/A   Clear
4:56 PM 82.0 °F 17.1 °F 9% 29.69 in 10.0 mi South 18.4 mph 25.3 mph N/A   Clear
5:56 PM 80.1 °F 19.0 °F 10% 29.68 in 10.0 mi South 18.4 mph 25.3 mph N/A   Clear
6:56 PM 75.0 °F 19.9 °F 13% 29.69 in 10.0 mi South 15.0 mph 21.9 mph N/A   Clear
7:56 PM 73.0 °F 21.9 °F 15% 29.68 in 10.0 mi SSE 13.8 mph 24.2 mph N/A   Clear
8:56 PM 69.1 °F 23.0 °F 18% 29.67 in 10.0 mi SSW 11.5 mph - N/A   Clear
9:56 PM 64.9 °F 24.1 °F 21% 29.66 in 10.0 mi SSW 6.9 mph - N/A   Clear
10:56 PM 68.0 °F 21.0 °F 17% 29.65 in 10.0 mi SSW 6.9 mph - N/A   Clear
11:56 PM 63.0 °F 21.0 °F 20% 29.67 in 10.0 mi WSW 9.2 mph - N/A   Clear